LDM107 LIBR-EDNY

Flight info

Callsign LDM107
Flight time 1h 53m
Altitude 38000
Route ENOXA DCT AIOSA DCT IPKIS DCT IXONA DCT RESIA DCT SOPER N851 ROLSA
Aircraft A319/M-SDE3FGHIRWY/LB1

Departure

Time 2026-04-21 09:34
Airport Brindisi Airport (LIBR)

Arrival

Time 2026-04-21 11:27
Airport Bodensee Airport Friedrichshafen (EDNY)
Time Latitude Longitude Altitude Speed Heading
2026-04-21 09:16 40.65560 17.93681 55 ft 0 kts
2026-04-21 09:29 40.65561 17.93682 56 ft 1 kts
2026-04-21 09:30 40.65571 17.93695 52 ft 3 kts 59°
2026-04-21 09:30 40.65564 17.93740 55 ft 7 kts 116°
2026-04-21 09:30 40.65540 17.93792 54 ft 9 kts 122°
2026-04-21 09:30 40.65548 17.93894 49 ft 15 kts 52°
2026-04-21 09:31 40.65627 17.94019 53 ft 21 kts 52°
2026-04-21 09:31 40.65720 17.94179 54 ft 22 kts 53°
2026-04-21 09:31 40.65816 17.94344 53 ft 23 kts 52°
2026-04-21 09:31 40.65883 17.94458 52 ft 0 kts 51°
2026-04-21 09:32 40.65888 17.94466 53 ft 4 kts 51°
2026-04-21 09:32 40.65907 17.94497 56 ft 4 kts 51°
2026-04-21 09:32 40.65929 17.94532 54 ft 7 kts 51°
2026-04-21 09:33 40.65974 17.94526 52 ft 8 kts 317°
2026-04-21 09:33 40.66001 17.94494 52 ft 5 kts 317°
2026-04-21 09:33 40.66095 17.94377 56 ft 36 kts 315°
2026-04-21 09:33 40.66476 17.93904 55 ft 111 kts 317°
2026-04-21 09:34 40.67190 17.93028 66 ft 165 kts 314°
2026-04-21 09:34 40.68048 17.91999 711 ft 166 kts 316°
2026-04-21 09:34 40.68911 17.90984 1438 ft 170 kts 317°
2026-04-21 09:34 40.69857 17.89888 1847 ft 192 kts 317°
2026-04-21 09:35 40.70909 17.88653 2212 ft 215 kts 315°
2026-04-21 09:35 40.72090 17.87252 2625 ft 241 kts 316°
2026-04-21 09:35 40.73389 17.85711 3278 ft 257 kts 316°
2026-04-21 09:35 40.74715 17.84138 4376 ft 256 kts 316°
2026-04-21 09:36 40.76053 17.82575 5441 ft 258 kts 319°
2026-04-21 09:36 40.77655 17.81472 6429 ft 266 kts 340°
2026-04-21 09:36 40.79527 17.81273 7383 ft 277 kts
2026-04-21 09:36 40.81392 17.82065 8342 ft 287 kts 19°
2026-04-21 09:37 40.83203 17.83116 9267 ft 289 kts 15°
2026-04-21 09:37 40.85151 17.83709 10118 ft 287 kts 359°
2026-04-21 09:37 40.87155 17.83573 10673 ft 296 kts 343°
2026-04-21 09:37 40.89159 17.82692 11058 ft 312 kts 334°
2026-04-21 09:38 40.91209 17.81628 11770 ft 320 kts 334°
2026-04-21 09:38 40.93323 17.80543 12587 ft 324 kts 335°
2026-04-21 09:38 40.95418 17.79477 13376 ft 329 kts 335°
2026-04-21 09:38 40.97567 17.78387 14124 ft 333 kts 335°
2026-04-21 09:39 40.99738 17.77284 14850 ft 336 kts 335°
2026-04-21 09:39 41.01924 17.76172 15588 ft 338 kts 335°
2026-04-21 09:39 41.04131 17.75047 16320 ft 341 kts 334°
2026-04-21 09:39 41.06350 17.73915 17027 ft 344 kts 334°
2026-04-21 09:40 41.08594 17.72772 17741 ft 347 kts 334°
2026-04-21 09:40 41.10857 17.71620 18432 ft 350 kts 334°
2026-04-21 09:40 41.13135 17.70461 19047 ft 352 kts 334°
2026-04-21 09:40 41.15430 17.69292 19669 ft 355 kts 334°
2026-04-21 09:41 41.17744 17.68111 20294 ft 357 kts 334°
2026-04-21 09:41 41.20071 17.66923 20912 ft 360 kts 334°
2026-04-21 09:41 41.22406 17.65679 21520 ft 362 kts 333°
2026-04-21 09:41 41.24731 17.64368 22149 ft 365 kts 332°
2026-04-21 09:42 41.27067 17.63009 22724 ft 368 kts 331°
2026-04-21 09:42 41.29423 17.61624 23314 ft 372 kts 331°
2026-04-21 09:42 41.31798 17.60231 23835 ft 374 kts 332°
2026-04-21 09:42 41.34193 17.58837 24324 ft 377 kts 332°
2026-04-21 09:43 41.36608 17.57444 24810 ft 379 kts 332°
2026-04-21 09:43 41.39040 17.56048 25283 ft 381 kts 332°
2026-04-21 09:43 41.41483 17.54647 25745 ft 383 kts 332°
2026-04-21 09:43 41.43908 17.53253 26182 ft 385 kts 332°
2026-04-21 09:44 41.46405 17.51813 26638 ft 387 kts 331°
2026-04-21 09:44 41.48887 17.50376 27075 ft 389 kts 331°
2026-04-21 09:44 41.51377 17.48933 27502 ft 392 kts 331°
2026-04-21 09:44 41.53850 17.47504 27915 ft 394 kts 331°
2026-04-21 09:45 41.56408 17.46031 28333 ft 396 kts 331°
2026-04-21 09:45 41.58909 17.44590 28726 ft 398 kts 331°
2026-04-21 09:45 41.61459 17.43116 29121 ft 400 kts 331°
2026-04-21 09:45 41.64022 17.41630 29511 ft 402 kts 331°
2026-04-21 09:46 41.66592 17.40139 29886 ft 404 kts 331°
2026-04-21 09:46 41.69179 17.38639 30247 ft 406 kts 331°
2026-04-21 09:46 41.71775 17.37130 30576 ft 407 kts 331°
2026-04-21 09:46 41.74373 17.35619 30882 ft 408 kts 331°
2026-04-21 09:47 41.76984 17.34100 31169 ft 410 kts 331°
2026-04-21 09:47 41.79605 17.32569 31444 ft 412 kts 331°
2026-04-21 09:47 41.82233 17.31030 31716 ft 413 kts 331°
2026-04-21 09:47 41.84858 17.29493 32087 ft 412 kts 331°
2026-04-21 09:48 41.87483 17.27957 32483 ft 410 kts 331°
2026-04-21 09:48 41.90098 17.26431 32861 ft 409 kts 332°
2026-04-21 09:48 41.92624 17.24718 33269 ft 404 kts 324°
2026-04-21 09:48 41.94877 17.22525 33653 ft 398 kts 316°
2026-04-21 09:49 41.96980 17.20108 34022 ft 397 kts 316°
2026-04-21 09:49 41.99080 17.17695 34330 ft 397 kts 316°
2026-04-21 09:49 42.01175 17.15286 34628 ft 397 kts 316°
2026-04-21 09:49 42.03273 17.12871 34908 ft 397 kts 316°
2026-04-21 09:50 42.05369 17.10462 35181 ft 397 kts 316°
2026-04-21 09:50 42.06051 17.09679 35270 ft 397 kts 316°
2026-04-21 09:50 42.11665 17.03229 35946 ft 397 kts 316°
2026-04-21 09:51 42.13763 17.00809 36192 ft 397 kts 316°
2026-04-21 09:51 42.15855 16.98388 36462 ft 397 kts 316°
2026-04-21 09:51 42.17951 16.95961 36680 ft 397 kts 316°
2026-04-21 09:51 42.20046 16.93534 36902 ft 398 kts 316°
2026-04-21 09:52 42.22143 16.91105 37127 ft 398 kts 316°
2026-04-21 09:52 42.24243 16.88674 37356 ft 398 kts 316°
2026-04-21 09:52 42.26315 16.86274 37577 ft 398 kts 316°
2026-04-21 09:52 42.28413 16.83841 37794 ft 398 kts 316°
2026-04-21 09:53 42.30510 16.81405 37949 ft 398 kts 315°
2026-04-21 09:53 42.31928 16.79757 37973 ft 397 kts 315°
2026-04-21 09:53 42.36787 16.74094 37972 ft 397 kts 315°
2026-04-21 09:54 42.40963 16.69220 37978 ft 397 kts 316°
2026-04-21 09:54 42.44469 16.65129 37972 ft 398 kts 316°
2026-04-21 09:55 42.48633 16.60265 37972 ft 398 kts 316°
2026-04-21 09:55 42.52844 16.55329 37971 ft 398 kts 316°
2026-04-21 09:56 42.57024 16.50414 37968 ft 398 kts 316°
2026-04-21 09:56 42.61178 16.45530 37967 ft 398 kts 316°
2026-04-21 09:57 42.65352 16.40603 37995 ft 398 kts 315°
2026-04-21 09:57 42.69528 16.35667 37986 ft 398 kts 315°
2026-04-21 09:58 42.73707 16.30721 37972 ft 398 kts 315°
2026-04-21 09:58 42.77884 16.25760 37972 ft 399 kts 315°
2026-04-21 09:59 42.82069 16.20797 37973 ft 399 kts 315°
2026-04-21 09:59 42.86276 16.15795 37976 ft 399 kts 315°
2026-04-21 10:00 42.90454 16.10812 37998 ft 399 kts 315°
2026-04-21 10:00 42.94607 16.05855 37991 ft 399 kts 315°
2026-04-21 10:01 42.98786 16.00851 37988 ft 400 kts 315°
2026-04-21 10:01 43.02964 15.95843 37993 ft 399 kts 315°
2026-04-21 10:02 43.09213 15.88336 37993 ft 398 kts 315°
2026-04-21 10:03 43.13359 15.83328 38006 ft 397 kts 315°
2026-04-21 10:03 43.17502 15.78325 38001 ft 397 kts 315°
2026-04-21 10:04 43.21640 15.73327 37996 ft 396 kts 315°
2026-04-21 10:04 43.25775 15.68326 37990 ft 396 kts 315°
2026-04-21 10:05 43.29898 15.63319 37989 ft 396 kts 315°
2026-04-21 10:05 43.34025 15.58295 37988 ft 397 kts 315°
2026-04-21 10:06 43.38158 15.53264 37995 ft 397 kts 315°
2026-04-21 10:06 43.42290 15.48219 37990 ft 398 kts 315°
2026-04-21 10:07 43.46429 15.43162 37990 ft 398 kts 315°
2026-04-21 10:07 43.50566 15.38086 37992 ft 398 kts 315°
2026-04-21 10:08 43.54701 15.33004 38000 ft 398 kts 315°
2026-04-21 10:08 43.58837 15.27917 38014 ft 398 kts 315°
2026-04-21 10:09 43.62968 15.22824 38003 ft 398 kts 315°
2026-04-21 10:09 43.67100 15.17727 38004 ft 399 kts 315°
2026-04-21 10:10 43.71235 15.12620 38001 ft 398 kts 315°
2026-04-21 10:10 43.75360 15.07503 37998 ft 398 kts 315°
2026-04-21 10:11 43.79486 15.02377 38003 ft 399 kts 315°
2026-04-21 10:11 43.83612 14.97246 38001 ft 398 kts 315°
2026-04-21 10:12 43.87728 14.92110 38003 ft 398 kts 315°
2026-04-21 10:12 43.91843 14.86971 38000 ft 398 kts 315°
2026-04-21 10:13 43.95927 14.81861 37999 ft 398 kts 315°
2026-04-21 10:13 44.00057 14.76678 37997 ft 397 kts 315°
2026-04-21 10:14 44.04129 14.71557 38017 ft 398 kts 314°
2026-04-21 10:14 44.08229 14.66393 38011 ft 398 kts 314°
2026-04-21 10:15 44.12325 14.61229 38014 ft 397 kts 314°
2026-04-21 10:15 44.16418 14.56062 37998 ft 397 kts 314°
2026-04-21 10:16 44.20507 14.50884 37988 ft 397 kts 314°
2026-04-21 10:16 44.24593 14.45698 37995 ft 397 kts 314°
2026-04-21 10:17 44.28679 14.40504 38019 ft 398 kts 314°
2026-04-21 10:17 44.32769 14.35294 38004 ft 398 kts 314°
2026-04-21 10:18 44.36842 14.30059 38002 ft 397 kts 311°
2026-04-21 10:18 44.40534 14.24343 37996 ft 396 kts 309°
2026-04-21 10:19 44.44213 14.18604 38000 ft 396 kts 309°
2026-04-21 10:19 44.47888 14.12854 38005 ft 396 kts 309°
2026-04-21 10:20 44.51567 14.07093 38033 ft 397 kts 309°
2026-04-21 10:20 44.55222 14.01367 38017 ft 397 kts 309°
2026-04-21 10:21 44.58900 13.95581 38014 ft 397 kts 309°
2026-04-21 10:21 44.62571 13.89787 38012 ft 397 kts 309°
2026-04-21 10:22 44.66241 13.83994 38012 ft 397 kts 309°
2026-04-21 10:22 44.69907 13.78198 38012 ft 397 kts 309°
2026-04-21 10:23 44.73573 13.72395 38005 ft 397 kts 309°
2026-04-21 10:23 44.77234 13.66582 38028 ft 397 kts 309°
2026-04-21 10:24 44.80890 13.60751 38023 ft 397 kts 309°
2026-04-21 10:24 44.84524 13.54899 38012 ft 396 kts 306°
2026-04-21 10:25 44.87694 13.48561 38014 ft 396 kts 303°
2026-04-21 10:25 44.90839 13.42190 38008 ft 396 kts 303°
2026-04-21 10:26 44.93975 13.35816 38018 ft 395 kts 303°
2026-04-21 10:26 44.97105 13.29444 38016 ft 395 kts 303°
2026-04-21 10:27 45.00210 13.23112 38019 ft 394 kts 303°
2026-04-21 10:27 45.03349 13.16686 38036 ft 395 kts 303°
2026-04-21 10:28 45.06447 13.10332 38024 ft 395 kts 303°
2026-04-21 10:28 45.09566 13.03938 38025 ft 395 kts 303°
2026-04-21 10:29 45.12679 12.97534 38027 ft 395 kts 303°
2026-04-21 10:29 45.15801 12.91102 38003 ft 401 kts 303°
2026-04-21 10:30 45.18983 12.84515 38012 ft 409 kts 303°
2026-04-21 10:30 45.22216 12.77817 38007 ft 414 kts 303°
2026-04-21 10:31 45.25474 12.71051 38008 ft 416 kts 303°
2026-04-21 10:31 45.28732 12.64261 38007 ft 416 kts 303°
2026-04-21 10:32 45.31995 12.57453 38009 ft 417 kts 303°
2026-04-21 10:32 45.35256 12.50630 38017 ft 417 kts 303°
2026-04-21 10:33 45.38512 12.43792 38011 ft 418 kts 303°
2026-04-21 10:33 45.41769 12.36942 38022 ft 418 kts 303°
2026-04-21 10:34 45.45024 12.30084 38027 ft 418 kts 303°
2026-04-21 10:34 45.48271 12.23226 38022 ft 418 kts 303°
2026-04-21 10:35 45.51520 12.16353 38030 ft 418 kts 303°
2026-04-21 10:35 45.54735 12.09517 38031 ft 418 kts 303°
2026-04-21 10:36 45.57971 12.02631 38034 ft 418 kts 303°
2026-04-21 10:36 45.61207 11.95738 38024 ft 418 kts 303°
2026-04-21 10:37 45.64437 11.88834 38031 ft 418 kts 303°
2026-04-21 10:37 45.67662 11.81927 38032 ft 418 kts 303°
2026-04-21 10:38 45.70881 11.74995 38032 ft 418 kts 302°
2026-04-21 10:38 45.74099 11.68057 38029 ft 418 kts 302°
2026-04-21 10:39 45.77317 11.61116 38024 ft 418 kts 302°
2026-04-21 10:39 45.80521 11.54181 38021 ft 417 kts 302°
2026-04-21 10:40 45.83725 11.47231 38016 ft 418 kts 302°
2026-04-21 10:40 45.86926 11.40272 38010 ft 418 kts 302°
2026-04-21 10:41 45.90126 11.33288 38009 ft 419 kts 302°
2026-04-21 10:41 45.93321 11.26297 37996 ft 419 kts 302°
2026-04-21 10:42 45.95977 11.20486 37989 ft 418 kts 302°
2026-04-21 10:42 45.99165 11.13491 37992 ft 419 kts 302°
2026-04-21 10:43 46.02348 11.06482 37999 ft 418 kts 302°
2026-04-21 10:43 46.05526 10.99470 38016 ft 418 kts 302°
2026-04-21 10:44 46.08689 10.92466 38005 ft 417 kts 302°
2026-04-21 10:44 46.11847 10.85448 37995 ft 417 kts 302°
2026-04-21 10:45 46.15001 10.78427 37969 ft 418 kts 302°
2026-04-21 10:45 46.18160 10.71385 37968 ft 418 kts 302°
2026-04-21 10:46 46.21314 10.64323 37963 ft 419 kts 303°
2026-04-21 10:46 46.24472 10.57248 37969 ft 420 kts 302°
2026-04-21 10:47 46.27630 10.50150 37973 ft 420 kts 302°
2026-04-21 10:47 46.30736 10.43177 37959 ft 400 kts 302°
2026-04-21 10:48 46.33676 10.36557 37959 ft 391 kts 302°
2026-04-21 10:48 46.36596 10.29935 37971 ft 390 kts 302°
2026-04-21 10:49 46.39504 10.23310 37970 ft 389 kts 302°
2026-04-21 10:49 46.42413 10.16701 37985 ft 389 kts 302°
2026-04-21 10:50 46.45329 10.10077 37997 ft 390 kts 302°
2026-04-21 10:50 46.46786 10.06753 37874 ft 391 kts 302°
2026-04-21 10:50 46.48231 10.03417 37603 ft 390 kts 301°
2026-04-21 10:50 46.49602 10.00028 37322 ft 390 kts 299°
2026-04-21 10:51 46.50919 9.96579 36584 ft 392 kts 298°
2026-04-21 10:51 46.52211 9.93090 35801 ft 393 kts 298°
2026-04-21 10:51 46.53494 9.89590 35118 ft 391 kts 297°
2026-04-21 10:51 46.54767 9.86135 34637 ft 385 kts 297°
2026-04-21 10:52 46.56039 9.82725 34089 ft 382 kts 298°
2026-04-21 10:52 46.57304 9.79367 33481 ft 376 kts 298°
2026-04-21 10:52 46.58557 9.76066 32963 ft 370 kts 298°
2026-04-21 10:52 46.59793 9.72821 32411 ft 363 kts 298°
2026-04-21 10:53 46.60998 9.69641 31930 ft 356 kts 299°
2026-04-21 10:53 46.62180 9.66509 31431 ft 351 kts 298°
2026-04-21 10:53 46.63344 9.63412 30948 ft 346 kts 298°
2026-04-21 10:53 46.64489 9.60365 30470 ft 342 kts 298°
2026-04-21 10:54 46.65622 9.57347 29997 ft 339 kts 298°
2026-04-21 10:54 46.66742 9.54358 29501 ft 333 kts 298°
2026-04-21 10:54 46.67838 9.51425 29051 ft 327 kts 298°
2026-04-21 10:54 46.68920 9.48536 28635 ft 322 kts 298°
2026-04-21 10:55 46.69982 9.45699 28220 ft 317 kts 298°
2026-04-21 10:55 46.71029 9.42901 27817 ft 312 kts 298°
2026-04-21 10:55 46.72057 9.40152 27422 ft 305 kts 298°
2026-04-21 10:55 46.73061 9.37464 27038 ft 299 kts 298°
2026-04-21 10:56 46.74044 9.34826 26665 ft 295 kts 298°
2026-04-21 10:56 46.75009 9.32222 26290 ft 289 kts 298°
2026-04-21 10:56 46.75961 9.29652 25920 ft 287 kts 298°
2026-04-21 10:56 46.76903 9.27108 25548 ft 284 kts 298°
2026-04-21 10:57 46.77836 9.24584 25172 ft 282 kts 298°
2026-04-21 10:57 46.78763 9.22080 24778 ft 279 kts 298°
2026-04-21 10:57 46.79686 9.19597 24391 ft 277 kts 298°
2026-04-21 10:57 46.80601 9.17127 24002 ft 276 kts 298°
2026-04-21 10:58 46.81508 9.14671 23644 ft 274 kts 298°
2026-04-21 10:58 46.82409 9.12229 23170 ft 274 kts 298°
2026-04-21 10:58 46.83295 9.09819 22753 ft 272 kts 298°
2026-04-21 10:58 46.84188 9.07386 22367 ft 272 kts 298°
2026-04-21 10:59 46.85082 9.04960 21979 ft 270 kts 298°
2026-04-21 10:59 46.85970 9.02551 21599 ft 269 kts 298°
2026-04-21 10:59 46.86867 9.00119 21216 ft 268 kts 298°
2026-04-21 10:59 46.87911 8.97900 20849 ft 270 kts 309°
2026-04-21 11:00 46.89298 8.96055 20475 ft 271 kts 321°
2026-04-21 11:00 46.90957 8.94697 20083 ft 276 kts 332°
2026-04-21 11:00 46.92828 8.93923 19705 ft 286 kts 344°
2026-04-21 11:00 46.94821 8.93635 19294 ft 289 kts 347°
2026-04-21 11:01 46.96820 8.93367 18903 ft 289 kts 347°
2026-04-21 11:01 46.98832 8.93088 18480 ft 291 kts 347°
2026-04-21 11:01 47.00844 8.92812 18053 ft 291 kts 348°
2026-04-21 11:02 47.04900 8.92250 17241 ft 294 kts 348°
2026-04-21 11:02 47.06946 8.91968 16825 ft 296 kts 348°
2026-04-21 11:02 47.08996 8.91685 16424 ft 296 kts 349°
2026-04-21 11:02 47.11042 8.91398 16041 ft 295 kts 349°
2026-04-21 11:03 47.13086 8.91112 15650 ft 296 kts 349°
2026-04-21 11:03 47.15144 8.90823 15252 ft 296 kts 350°
2026-04-21 11:03 47.17199 8.90538 14864 ft 297 kts 350°
2026-04-21 11:03 47.19262 8.90254 14472 ft 298 kts 351°
2026-04-21 11:04 47.21327 8.89973 14078 ft 299 kts 351°
2026-04-21 11:04 47.23413 8.89686 13561 ft 302 kts 351°
2026-04-21 11:04 47.25507 8.89461 13141 ft 303 kts 358°
2026-04-21 11:04 47.27585 8.90012 12723 ft 307 kts 17°
2026-04-21 11:05 47.29442 8.91503 12311 ft 310 kts 37°
2026-04-21 11:05 47.30907 8.93830 11942 ft 313 kts 55°
2026-04-21 11:05 47.32006 8.96592 11607 ft 310 kts 58°
2026-04-21 11:05 47.33091 8.99361 11232 ft 308 kts 57°
2026-04-21 11:06 47.34155 9.02064 10815 ft 308 kts 58°
2026-04-21 11:06 47.35226 9.04787 10459 ft 306 kts 58°
2026-04-21 11:06 47.36291 9.07497 10068 ft 305 kts 58°
2026-04-21 11:06 47.37352 9.10210 9654 ft 304 kts 58°
2026-04-21 11:07 47.38403 9.12899 9259 ft 301 kts 58°
2026-04-21 11:07 47.39443 9.15561 8832 ft 299 kts 58°
2026-04-21 11:07 47.40638 9.18002 8237 ft 290 kts 44°
2026-04-21 11:07 47.42229 9.19759 7602 ft 282 kts 27°
2026-04-21 11:08 47.44071 9.20707 7198 ft 280 kts 10°
2026-04-21 11:08 47.45993 9.21098 6791 ft 277 kts
2026-04-21 11:08 47.47896 9.21467 6412 ft 274 kts
2026-04-21 11:08 47.49754 9.21822 6143 ft 266 kts
2026-04-21 11:09 47.51533 9.22163 5950 ft 256 kts
2026-04-21 11:09 47.53259 9.22501 5831 ft 243 kts
2026-04-21 11:09 47.54877 9.22942 5715 ft 231 kts 20°
2026-04-21 11:09 47.56248 9.24051 5512 ft 221 kts 40°
2026-04-21 11:10 47.57228 9.25751 5254 ft 216 kts 59°
2026-04-21 11:10 47.57975 9.27660 4975 ft 214 kts 59°
2026-04-21 11:10 47.58718 9.29558 4671 ft 212 kts 59°
2026-04-21 11:10 47.59455 9.31444 4369 ft 213 kts 59°
2026-04-21 11:11 47.60197 9.33342 4056 ft 210 kts 59°
2026-04-21 11:11 47.60912 9.35173 3771 ft 200 kts 59°
2026-04-21 11:11 47.61591 9.36913 3528 ft 191 kts 59°
2026-04-21 11:11 47.62245 9.38588 3248 ft 184 kts 59°
2026-04-21 11:12 47.62877 9.40209 2977 ft 178 kts 58°
2026-04-21 11:12 47.63472 9.41736 2739 ft 163 kts 58°
2026-04-21 11:12 47.63999 9.43092 2527 ft 142 kts 58°
2026-04-21 11:12 47.64473 9.44311 2319 ft 133 kts 56°
2026-04-21 11:13 47.64931 9.45485 2094 ft 130 kts 56°
2026-04-21 11:13 47.65383 9.46646 1926 ft 130 kts 56°
2026-04-21 11:13 47.65835 9.47814 1749 ft 129 kts 57°
2026-04-21 11:13 47.66281 9.48954 1565 ft 125 kts 54°
2026-04-21 11:14 47.66714 9.50085 1414 ft 126 kts 55°
2026-04-21 11:14 47.67234 9.51370 1812 ft 159 kts 56°
2026-04-21 11:14 47.67835 9.52836 2851 ft 175 kts 58°
2026-04-21 11:14 47.68462 9.54457 3433 ft 191 kts 58°
2026-04-21 11:15 47.69127 9.56205 4194 ft 194 kts 59°
2026-04-21 11:15 47.69798 9.57964 4990 ft 197 kts 58°
2026-04-21 11:15 47.70741 9.59511 5503 ft 212 kts 27°
2026-04-21 11:15 47.72223 9.59791 5949 ft 224 kts 348°
2026-04-21 11:16 47.73523 9.58595 6014 ft 225 kts 312°
2026-04-21 11:16 47.74291 9.56569 6012 ft 228 kts 287°
2026-04-21 11:16 47.74349 9.54220 6011 ft 232 kts 258°
2026-04-21 11:16 47.73924 9.51902 6013 ft 232 kts 255°
2026-04-21 11:17 47.73460 9.49615 6009 ft 232 kts 252°
2026-04-21 11:17 47.72971 9.47365 6012 ft 232 kts 253°
2026-04-21 11:17 47.72516 9.45082 6009 ft 231 kts 255°
2026-04-21 11:17 47.72083 9.42780 6015 ft 231 kts 255°
2026-04-21 11:18 47.71659 9.40474 6006 ft 232 kts 256°
2026-04-21 11:18 47.71236 9.38167 6007 ft 231 kts 256°
2026-04-21 11:18 47.70811 9.35864 6025 ft 232 kts 256°
2026-04-21 11:18 47.70380 9.33543 5862 ft 235 kts 256°
2026-04-21 11:19 47.69903 9.31244 5719 ft 232 kts 247°
2026-04-21 11:19 47.69125 9.29132 5670 ft 235 kts 240°
2026-04-21 11:19 47.68302 9.27036 5619 ft 234 kts 240°
2026-04-21 11:19 47.67484 9.24953 5548 ft 233 kts 240°
2026-04-21 11:20 47.66665 9.22862 5501 ft 236 kts 240°
2026-04-21 11:20 47.65843 9.20753 5453 ft 234 kts 241°
2026-04-21 11:20 47.64886 9.18789 5396 ft 238 kts 219°
2026-04-21 11:20 47.63407 9.17834 5346 ft 234 kts 182°
2026-04-21 11:21 47.61844 9.18232 5292 ft 228 kts 149°
2026-04-21 11:21 47.60471 9.19387 5240 ft 224 kts 145°
2026-04-21 11:21 47.59175 9.20499 5212 ft 207 kts 146°
2026-04-21 11:21 47.57982 9.21527 5173 ft 190 kts 142°
2026-04-21 11:22 47.57143 9.22850 5117 ft 167 kts 109°
2026-04-21 11:22 47.56940 9.24417 5060 ft 147 kts 79°
2026-04-21 11:22 47.57242 9.25794 5048 ft 148 kts 58°
2026-04-21 11:22 47.57788 9.27180 4964 ft 158 kts 58°
2026-04-21 11:23 47.58336 9.28581 4789 ft 158 kts 57°
2026-04-21 11:23 47.58880 9.29972 4589 ft 156 kts 58°
2026-04-21 11:23 47.59427 9.31368 4370 ft 156 kts 58°
2026-04-21 11:23 47.59973 9.32766 4156 ft 157 kts 59°
2026-04-21 11:24 47.60515 9.34154 3925 ft 156 kts 58°
2026-04-21 11:24 47.61058 9.35544 3717 ft 154 kts 58°
2026-04-21 11:24 47.61595 9.36918 3503 ft 155 kts 58°
2026-04-21 11:24 47.62134 9.38301 3291 ft 156 kts 59°
2026-04-21 11:25 47.62670 9.39676 3100 ft 154 kts 57°
2026-04-21 11:25 47.63203 9.41045 2847 ft 153 kts 57°
2026-04-21 11:25 47.63734 9.42406 2632 ft 153 kts 58°
2026-04-21 11:25 47.64268 9.43778 2413 ft 155 kts 57°
2026-04-21 11:26 47.64805 9.45159 2165 ft 148 kts 56°
2026-04-21 11:26 47.65289 9.46409 1960 ft 136 kts 55°
2026-04-21 11:26 47.65749 9.47591 1767 ft 129 kts 57°
2026-04-21 11:26 47.66188 9.48719 1608 ft 127 kts 56°
2026-04-21 11:27 47.66633 9.49850 1424 ft 127 kts 58°
2026-04-21 11:27 47.67051 9.50935 1354 ft 108 kts 59°
2026-04-21 11:27 47.67344 9.51683 1361 ft 59 kts 60°
2026-04-21 11:27 47.67480 9.52043 1365 ft 23 kts 60°
2026-04-21 11:28 47.67527 9.52186 1367 ft 12 kts 88°
2026-04-21 11:28 47.67489 9.52298 1368 ft 12 kts 121°
2026-04-21 11:28 47.67461 9.52340 1369 ft 3 kts 147°
2026-04-21 11:28 47.67445 9.52352 1369 ft 4 kts 154°
2026-04-21 11:29 47.67396 9.52316 1368 ft 11 kts 246°
2026-04-21 11:29 47.67365 9.52235 1367 ft 7 kts 216°
2026-04-21 11:29 47.67326 9.52246 1368 ft 0 kts 150°
2026-04-21 11:30 47.67322 9.52250 1368 ft 2 kts 150°
2026-04-21 11:30 47.67307 9.52252 1367 ft 0 kts 200°